Regional Weather Roundup
Issued by NWS

Home | Current Version | Previous Version | Graphics & Text | Print | Product List | Glossary On
Versions: 1 2 3 4 5 6 7 8 9 10 11 12 13 14 15 16 17 18 19 20 21 22 23 24 25 26 27 28 29 30 31 32 33 34 35 36 37 38 39 40 41 42 43 44 45 46 47 48 49 50
000
ASUS44 KMEG 271610
RWRTN
TENNESSEE HOURLY STATE WEATHER ROUNDUP
NATIONAL WEATHER SERVICE MEMPHIS TN
1000 AM CST TUE JAN 27 2015

TNZ002-004-019-021-049-052-054-088>092-271700-
WEST TENNESSEE

CITY           SKY/WX    TMP DP  RH WIND       PRES   REMARKS
MEMPHIS INTL   SUNNY     51  36  56 N15       30.13R
NWS MEMPHIS      N/A     49 N/A N/A MISG        N/A
JACKSON        MOSUNNY   46  36  68 N9        30.11R
DYERSBURG      SUNNY     45  27  49 N12G18    30.14R
UNION CITY     SUNNY     39  37  93 N13       30.12R WCI  32
PARIS          MOSUNNY   37  32  81 NW8       30.10R WCI  31
LEXINGTON      SUNNY     43  34  70 N9        30.07R
SAVANNAH       SUNNY     45  37  76 N10       30.09R
$$

TNZ008-025-027-028-033-062-065-066-271700-
NORTH MIDDLE TENNESSEE

CITY           SKY/WX    TMP DP  RH WIND       PRES   REMARKS
NASHVILLE      CLOUDY    40  32  73 NW9       30.06R WCI  34
CLARKSVILLE    CLOUDY    40  33  76 N13       30.07R WCI  32
SMYRNA         CLOUDY    39  33  79 N10       30.07R WCI  32
COOKEVILLE     CLOUDY    34  34 100 N5        30.00R WCI  30
CROSSVILLE     CLOUDY    32  28  85 N9        29.97R WCI  24
$$

TNZ061-075-076-078-094-096-097-271700-
SOUTH MIDDLE TENNESSEE

CITY           SKY/WX    TMP DP  RH WIND       PRES   REMARKS
FAYETTEVILLE   MOSUNNY   41  32  70 N15       30.02R
TULLAHOMA      PTSUNNY   37  30  75 N16       30.02R WCI  28
WINCHESTER     CLOUDY    39  32  75 N6        30.02R WCI  35
MCMINNVILLE    CLOUDY    36  36 100 N8        30.01R WCI  29
COLUMBIA       MOSUNNY   43  41  93 N13       30.04R
SHELBYVILLE    PTSUNNY   41  36  81 N15       30.04R
$$

TNZ017-018-042-046-047-271700-
NORTHEAST TENNESSEE

CITY           SKY/WX    TMP DP  RH WIND       PRES   REMARKS
TRI CITIES     CLOUDY    32  23  69 N5        29.94R WCI  27
ELIZABETHTON   CLOUDY    28  19  69 W7        29.93R WCI  21
$$

TNZ012-013-036-069-073-074-271700-
CENTRAL EAST TENNESSEE

CITY           SKY/WX    TMP DP  RH WIND       PRES   REMARKS
KNOXVILLE      CLOUDY    33  30  88 CALM      29.99R FOG
OAK RIDGE      CLOUDY    34  31  88 CALM      30.01R
GATLINBURG     CLOUDY    30  28  93 CALM      29.98R
MORRISTOWN     MOSUNNY   30  27  86 N5        29.96S WCI  25
$$

TNZ083-085-099-271700-
SOUTHEAST TENNESSEE

CITY           SKY/WX    TMP DP  RH WIND       PRES   REMARKS
CHATTANOOGA    PTSUNNY   42  34  73 N5        30.00R
$$

SKY/WX REPORTED AS FAIR MEANS FEW OR NO CLOUDS BELOW
12 THOUSAND FEET.




USA.gov is the U.S. government's official web portal to all federal, state and local government web resources and services.